COSMOS 2376 (GLONASS)

Satellite information

Favourite Embed

Satellite Type and Status

PAYLOADIN ORBIT

Key statistics

Satellite COSMOS 2376 (GLONASS) at a glance.

Uptime

9034

Days in orbit

Revolutions

≈ 2.1

Per day

Orbit

MEO

Medium Earth Orbit

Inclination

65.4

Latest

Satellite identification and parameters

Extended collection of information and parameters for COSMOS 2376 (GLONASS).

Object identification

Identified? True

Debris? False

Object name: COSMOS 2376 (GLONASS)

International designator: 2000-063B

Object number (NORAD): 26565

Object ID (CCSDS): 26565

Country: COMMONWEALTH OF INDEPENDENT STATES (CIS)

Current information (Y/N): Y

RCS size: LARGE

Orbital parameters

Period: 675.731 minutes

Inclination: 65.4016 deg

SMA: 25507.972 km

Apoapsis: 19140.894 km

Periapsis: 19118.779 km

RAAN: 325.5841 deg

Eccentricy: 0.0004335

Argument of periapsis: 32.404 deg

Mean anomaly: 321.5338 deg

Mean motion: 2.1310266 rev/day

Mean motion (dot): -0.00000072 rev/day2

B* drag term: 0.0 1/REarth

Two-line elements (TLE)

Creation date: July 8, 2025, 2:27 a.m.

Reference frame: TEME

Reference center: EARTH

Epoch: July 7, 2025, 6:28 p.m. UTC

TLE line 0: 0 COSMOS 2376 (GLONASS)

TLE line 1: 1 26565U 00063B 25188.76961630 -.00000072 00000-0 00000-0 0 9995

TLE line 2: 2 26565 65.4016 325.5841 0004335 32.4040 321.5338 2.13102660192473

Live tracking on map

Real-time ground track for satellite COSMOS 2376 (GLONASS).

In-orbit conjunctions

There are no conjunctions computed for COSMOS 2376 (GLONASS), at the moment. Check back to stay up to date, as we update our databases every day.

Go to all conjunctions

Associated space launch

GLONASS navigation satellites

COSMOS 2376 (GLONASS) was lifted into orbit during the mission ‘Proton | Uragan 75 to 77’, on board a Proton space rocket.

The launch took place on Oct. 13, 2000, 2:12 p.m. from 81/24 (81P).

For more information about the launch, click the button.

Launch to space Proton | Uragan 75 to 77
Proton | Uragan 75 to 77

Agency: N/A

Status: Launch Successful

Launch date: Oct. 13, 2000, 2:12 p.m. UTC

Rocket: Proton

Launch pad: 81/24 (81P)

Location: Baikonur Cosmodrome, Republic of Kazakhstan

...

Latest news about this satellite

There are no fresh news available about this satellite. Check back as we update our databases every day.


Newsletter sign-up

Weekly statistics, charts and insights to help you stay on top of the space industry.